FW5281 Weather Reports


Display with metric or nautical units.
time (UTC)temp
F
wind
direction
speed
MPH
gust
MPH
rain 1hr
in
rain 24hr
in
rain mn
in
humidity
%
barometer
mb
20260504150516 71 0.0 0.0 0.00 0.00 0.00 53 1005.2
20260504140516 69 0.0 0.0 0.00 0.00 0.00 56 1004.9
20260504130516 64 0.0 0.0 0.00 0.00 0.00 68 1005.6
20260504110515 62 0.0 0.0 0.00 0.00 0.00 69 1006.0
20260504100516 63 0.0 0.0 0.00 0.00 0.00 66 1005.8
20260504081516 65 0.0 0.0 0.00 0.00 0.00 65 1005.9
20260504080515 65 0.0 0.0 0.00 0.00 0.00 61 1005.8
20260504050536 68 0.0 0.0 0.00 0.00 0.00 51 1005.4
20260504045515 69 0.0 0.0 0.00 0.00 0.00 50 1005.3
20260504044515 69 0.0 0.0 0.00 0.00 0.00 50 1005.6
20260504043515 69 0.0 0.0 0.00 0.00 0.00 49 1005.9
20260504042515 69 0.0 0.0 0.00 0.00 0.00 48 1006.3
20260504041515 69 0.0 0.0 0.00 0.00 0.00 48 1006.5
20260504040515 69 0.0 0.0 0.00 0.00 0.00 48 1006.2
20260504035515 69 0.0 0.0 0.00 0.00 0.00 48 1007.0
20260504034535 69 0.0 0.0 0.00 0.00 0.00 47 1006.9
20260504033515 70 0.0 0.0 0.00 0.00 0.00 47 1007.1
20260504032515 70 0.0 0.0 0.00 0.00 0.00 46 1007.0
20260504031515 70 0.0 0.0 0.00 0.00 0.00 46 1007.0
20260504030515 71 0.0 0.0 0.00 0.00 0.00 45 1006.8
20260504025535 71 0.0 0.0 0.00 0.00 0.00 44 1006.8
20260504024516 71 0.0 0.0 0.00 0.00 0.00 43 1006.7
20260504023515 72 0.0 0.0 0.00 0.00 0.00 42 1006.7
20260504022515 72 0.0 0.0 0.00 0.00 0.00 42 1006.6
20260504021515 73 0.0 0.0 0.00 0.00 0.00 41 1006.5
20260504020515 73 0.0 0.0 0.00 0.00 0.00 40 1006.4
20260504015515 74 0.0 0.0 0.00 0.00 0.00 40 1006.4
20260504014515 74 0.0 0.0 0.00 0.00 0.00 40 1006.2
20260504013535 74 0.0 0.0 0.00 0.00 0.00 39 1006.2
20260504012515 75 0.0 0.0 0.00 0.00 0.00 38 1006.1
20260504011537 75 0.0 0.0 0.00 0.00 0.00 38 1006.1
20260504010517 75 0.0 0.0 0.00 0.00 0.00 38 1006.1
20260504005537 76 0.0 0.0 0.00 0.00 0.00 37 1006.0
20260504004517 76 0.0 0.0 0.00 0.00 0.00 36 1006.0
20260504003537 77 0.0 0.0 0.00 0.00 0.00 37 1006.1
20260504002517 77 0.0 0.0 0.00 0.00 0.00 35 1006.1
20260504001517 78 0.0 0.0 0.00 0.00 0.00 35 1006.1
20260504000517 78 0.0 0.0 0.00 0.00 0.00 33 1006.1
20260503235517 78 0.0 0.0 0.00 0.00 0.00 33 1006.2
20260503234517 79 0.0 0.0 0.00 0.00 0.00 32 1006.3
20260503233517 79 0.0 0.0 0.00 0.00 0.00 31 1006.4
20260503232517 80 0.0 0.0 0.00 0.00 0.00 30 1006.5
20260503231517 81 0.0 0.0 0.00 0.00 0.00 28 1006.5
20260503230727 82 0.0 0.0 0.00 0.00 0.00 28 1006.6
20260503225517 82 0.0 0.0 0.00 0.00 0.00 28 1006.6
20260503224517 83 0.0 0.0 0.00 0.00 0.00 27 1006.8
20260503223517 83 0.0 0.0 0.00 0.00 0.00 27 1006.8
20260503222517 82 0.0 0.0 0.00 0.00 0.00 28 1006.9
20260503221517 82 0.0 0.0 0.00 0.00 0.00 28 1006.9
20260503220517 82 0.0 0.0 0.00 0.00 0.00 27 1007.0
20260503215516 81 0.0 0.0 0.00 0.00 0.00 28 1007.1
20260503214517 81 0.0 0.0 0.00 0.00 0.00 27 1007.2
20260503213516 81 0.0 0.0 0.00 0.00 0.00 28 1007.1
20260503212537 81 0.0 0.0 0.00 0.00 0.00 28 1007.2
20260503211516 81 0.0 0.0 0.00 0.00 0.00 27 1007.5
20260503204517 80 0.0 0.0 0.00 0.00 0.00 29 1007.9
20260503203517 80 0.0 0.0 0.00 0.00 0.00 29 1008.0
20260503202517 80 0.0 0.0 0.00 0.00 0.00 29 1008.4
20260503201516 80 0.0 0.0 0.00 0.00 0.00 28 1008.7
20260503200518 80 0.0 0.0 0.00 0.00 0.00 29 1008.9
20260503195516 79 0.0 0.0 0.00 0.00 0.00 30 1009.2
20260503194517 78 0.0 0.0 0.00 0.00 0.00 30 1009.4
20260503193516 78 0.0 0.0 0.00 0.00 0.00 29 1009.8
20260503192517 78 0.0 0.0 0.00 0.00 0.00 30 1010.1
20260503191517 77 0.0 0.0 0.00 0.00 0.00 30 1010.2
20260503190516 77 0.0 0.0 0.00 0.00 0.00 31 1010.4
20260503185516 77 0.0 0.0 0.00 0.00 0.00 28 1010.7
20260503184517 77 0.0 0.0 0.00 0.00 0.00 29 1011.1
20260503183516 76 0.0 0.0 0.00 0.00 0.00 30 1011.3
20260503182516 75 0.0 0.0 0.00 0.00 0.00 29 1011.6
20260503181517 75 0.0 0.0 0.00 0.00 0.00 30 1012.0
20260503180519 75 0.0 0.0 0.00 0.00 0.00 31 1012.2
20260503175516 74 0.0 0.0 0.00 0.00 0.00 31 1012.6
20260503174517 74 0.0 0.0 0.00 0.00 0.00 32 1013.1
20260503173518 73 0.0 0.0 0.00 0.00 0.00 35 1013.5
20260503172516 72 0.0 0.0 0.00 0.00 0.00 33 1013.7
20260503171516 72 0.0 0.0 0.00 0.00 0.00 34 1013.8
20260503170536 70 0.0 0.0 0.00 0.00 0.00 37 1014.1